Miscellaneous Local Product
Issued by NWS North Platte, NE

Home | Current Version | Previous Version | Text Only | Print | Product List | Glossary On
Versions: 1 2 3 4 5 6 7 8 9 10 11 12 13 14 15 16 17 18 19 20 21 22 23 24 25 26 27 28 29 30 31 32 33 34 35 36 37 38 39 40 41 42 43 44 45 46 47 48 49 50
000
AXUS43 KLBF 280110
MISLBF


WESTERN AND NORTH CENTRAL NEBRASKA HOURLY WEATHER ROUNDUP
NATIONAL WEATHER SERVICE NORTH PLATTE NE
800 PM CDT WED MAY 27 2015

***STATIONS NOT REPORTING VARIABLES SUCH AS SKY/WEATHER OR
PRESSURE ARE PROVIDED BY THE NEBRASKA DEPARTMENT OF
ROADS...RAWS...AND APRS NETWORKS...AND ARE NOT UNDER
NATIONAL WEATHER SERVICE QUALITY CONTROL***

...OBSERVATIONS IN AND NEAR THE EASTERN PANHANDLE OF NEBRASKA...

CITY           SKY/WX    TMP DP  RH WIND       PRES   REMARKS
PINE RIDGE     CLOUDY    70  53  54 SW5       29.92S
CHADRON        MOSUNNY   70  55  59 S8        29.91F
ALLIANCE       PTSUNNY   67  54  63 S13       29.98S
SIDNEY         MOSUNNY   65  57  75 E15       30.03R
WHITECLAY        N/A     72  48  42 S12         N/A
BIG SPRINGS      N/A     65  60  83 SE16        N/A
$$

...OBSERVATIONS IN NORTH CENTRAL NEBRASKA...

CITY           SKY/WX    TMP DP  RH WIND       PRES   REMARKS
VALENTINE      CLOUDY    69  57  65 S13       29.97S
THEDFORD       CLOUDY    71  53  54 S13G20    30.02R
AINSWORTH      CLOUDY    71  54  54 S12       29.99F
O`NEILL        PTCLDY    74  53  48 S8        30.01R
ORD            CLOUDY    71  52  50 CALM      30.01R
BROKEN BOW     CLOUDY    69  53  56 SE9       30.01F
BROWNLEE         N/A     72  54  53 S13         N/A
VALENTINE NWR    N/A     67  56  67 S6G13       N/A
SPRINGVIEW       N/A     73  55  53 S8G20       N/A
HALSEY           N/A     71  51  49 SE10G18     N/A
BREWSTER         N/A     74  57  54 S13         N/A
ROSE             N/A     74  58  58 E7          N/A
NEWPORT          N/A     73  55  53 S9          N/A
SARGENT          N/A     69  55  62 CALM        N/A
COMSTOCK         N/A     72  59  62 S7          N/A
EWING            N/A     75  54  47 SW10        N/A
$$

...OBSERVATIONS IN SOUTHWEST NEBRASKA AND FAR NORTHEAST COLORADO...

CITY           SKY/WX    TMP DP  RH WIND       PRES   REMARKS
WRAY           FAIR      66  57  72 E21G29    30.02R
HOLYOKE        FAIR      64  52  63 SE18G26   30.03R
IMPERIAL       CLOUDY    62  58  86 S12       30.03R
OGALLALA       CLOUDY    64  60  85 SE12      30.03R
NORTH PLATTE   CLOUDY    68  57  68 SE8       30.03R
MCCOOK         LGT RAIN  65  60  84 N7        30.05R
LEXINGTON      CLOUDY    71  58  63 SE13      30.01F
PAXTON           N/A     63  59  88 E20         N/A
GOTHENBURG       N/A     70  54  56 S7          N/A
CALLAWAY         N/A     67  58  72 SE12        N/A
$$

...NORTH PLATTE AREA...

CITY           SKY/WX    TMP DP  RH WIND       PRES   REMARKS
AIRPORT        CLOUDY    68  57  68 SE8       30.03R
$$

...SOME WEATHER OBSERVATIONS FROM AROUND THE REGION...

CITY           SKY/WX    TMP DP  RH WIND       PRES   REMARKS
DENVER         PTSUNNY   66  49  54 SE7       30.02R THUNDER
LARAMIE        PTSUNNY   58  39  49 W20G28    30.11R
CHEYENNE       CLOUDY    63  46  54 SE10      30.05R
SCOTTSBLUFF    PTSUNNY   66  53  63 SE13      29.97F
RAPID CITY     MOSUNNY   69  59  70 S9        29.90S
PIERRE         LGT RAIN  72  52  49 SE10      29.90S
WINNER         FAIR      75  50  41 SE13      29.95S
SIOUX FALLS    PTCLDY    76  52  43 SW6       29.99R
OMAHA          MOCLDY    78  54  43 SE8       30.02S
GRAND ISLAND   CLOUDY    74  52  46 S7        30.02S
KANSAS CITY    MOCLDY    77  51  40 E9        30.06S
WICHITA        CLOUDY    78  64  61 SE8       30.01R
HAYS           CLOUDY    70  61  73 SE22      30.01F
LIBERAL        CLOUDY    70  54  56 W15       30.07R
GOODLAND       PTSUNNY   66  58  75 SE25G36   30.00R
$$



USA.gov is the U.S. government's official web portal to all federal, state and local government web resources and services.